Miscellaneous Local Product
Issued by NWS North Platte, NE

Home | Current Version | Previous Version | Graphics & Text | Print | Product List | Glossary On
Versions: 1 2 3 4 5 6 7 8 9 10 11 12 13 14 15 16 17 18 19 20 21 22 23 24 25 26 27 28 29 30 31 32 33 34 35 36 37 38 39 40 41 42 43 44 45 46 47 48 49 50
000
AXUS43 KLBF 271910
MISLBF


WESTERN AND NORTH CENTRAL NEBRASKA HOURLY WEATHER ROUNDUP
NATIONAL WEATHER SERVICE NORTH PLATTE NE
200 PM CDT FRI MAR 27 2015

***STATIONS NOT REPORTING VARIABLES SUCH AS SKY/WEATHER OR
PRESSURE ARE PROVIDED BY THE NEBRASKA DEPARTMENT OF
ROADS...RAWS...AND APRS NETWORKS...AND ARE NOT UNDER
NATIONAL WEATHER SERVICE QUALITY CONTROL***

...OBSERVATIONS IN AND NEAR THE EASTERN PANHANDLE OF NEBRASKA...

CITY           SKY/WX    TMP DP  RH WIND       PRES   REMARKS
PINE RIDGE     CLOUDY    63  35  35 NW21G28   29.98F
CHADRON        SUNNY     66  39  37 NW20G33   30.00F
ALLIANCE       MOSUNNY   64  35  34 NW26G40   30.02F
SIDNEY         PTSUNNY   64  36  35 NW22G35   30.08F
WHITECLAY        N/A     63  37  38 W20         N/A
CRESCENT LAKE    N/A     65  34  32 NW20G28     N/A
BIG SPRINGS      N/A     57  39  52 W12         N/A
$$

...OBSERVATIONS IN NORTH CENTRAL NEBRASKA...

CITY           SKY/WX    TMP DP  RH WIND       PRES   REMARKS
VALENTINE      CLOUDY    52  36  54 SW8       29.97F
THEDFORD       PTSUNNY   55  39  55 SW16G24   30.01F
AINSWORTH      CLOUDY    46  32  59 S16G23    30.02F
O`NEILL        LGT SNOW  33  31  95 S12       30.13F WCI  24
ORD            LGT SNOW  35  26  69 S15       30.12F WCI  25
BROKEN BOW     CLOUDY    44  30  57 S20G28    30.08F
BROWNLEE         N/A     55  40  57 S12         N/A
SPRINGVIEW       N/A     42  30  63 S9G20       N/A
BREWSTER         N/A     43  31  62 SW15        N/A
ROSE             N/A     38  31  74 SE17        N/A  WCI  29
NEWPORT          N/A     36  30  79 S15         N/A  WCI  27
SARGENT          N/A     39  30  71 SW5G12      N/A
COMSTOCK         N/A     40  28  62 S15         N/A  WCI  32
EWING            N/A     34  30  85 SW12G20     N/A  WCI  25
$$

...OBSERVATIONS IN SOUTHWEST NEBRASKA AND FAR NORTHEAST COLORADO...

CITY           SKY/WX    TMP DP  RH WIND       PRES   REMARKS
WRAY           FAIR      67  34  30 NW14G22   30.08F
HOLYOKE        FAIR      64  34  32 NW20      30.07F
IMPERIAL         N/A     59  36  42 W9        30.06F
OGALLALA       MOSUNNY   63  39  41 NW10G22   30.03F
NORTH PLATTE   CLOUDY    48  35  60 SW14      30.08F
MCCOOK         PTSUNNY   50  34  54 S16       30.11F
LEXINGTON      DRIZZLE   42  33  69 SW13G21   30.13F
PAXTON           N/A     49  41  74 SW12        N/A
SUTHERLAND       N/A     51  37  59 W12         N/A
BRADY            N/A     44  34  67 CALM        N/A
GOTHENBURG       N/A     40  30  66 SW9         N/A  WCI  34
CALLAWAY         N/A     40  31  70 S17         N/A  WCI  31
$$

...NORTH PLATTE AREA...

CITY           SKY/WX    TMP DP  RH WIND       PRES   REMARKS
AIRPORT        CLOUDY    48  35  60 SW14      30.08F
DOWNTOWN         N/A     48  37  67 SW9G16      N/A
$$

...SOME WEATHER OBSERVATIONS FROM AROUND THE REGION...

CITY           SKY/WX    TMP DP  RH WIND       PRES   REMARKS
DENVER         PTSUNNY   64  29  26 VRB3      30.15F
LARAMIE        SUNNY     57  26  30 NW23G32   30.21F
CHEYENNE       MOSUNNY   59  27  29 NW21G37   30.15F
SCOTTSBLUFF    MOSUNNY   67  38  34 NW17G24   30.05F
RAPID CITY     SUNNY     69  38  32 NW28G37   29.95F
PIERRE         CLOUDY    41  32  70 S21       30.00F
WINNER         FAIR      45  30  55 S22G28    30.02F
SIOUX FALLS    CLOUDY    34   9  35 S8        30.16F WCI  27
OMAHA          CLOUDY    39  14  36 VRB3      30.22F
GRAND ISLAND   CLOUDY    37  23  56 S9        30.18F WCI  30
KANSAS CITY    PTSUNNY   41  19  41 N9        30.23F
WICHITA        PTSUNNY   47  27  45 CALM      30.23F
HAYS           CLOUDY    45  25  45 CALM      30.20F
LIBERAL        FAIR      54  32  43 S6        30.22F
GOODLAND       SUNNY     62  36  37 NW8       30.09F
$$



USA.gov is the U.S. government's official web portal to all federal, state and local government web resources and services.